When you browse on this site, cookies collect data to enhance your experience and personalize the content and advertising you see.
Visit our Privacy Policy to learn more. By continuing to use the site, you agree to this use of cookies and data.

Hourly Weather Oktyabrsk

Today, 14 July, Tuesday

Time Temperature Precipitation Wind Pressure Humidity
00:00 +11°C° 0 mm 3 mps 747 mmHg 92%
01:00 +10°C° 0 mm 3 mps 747 mmHg 92%
02:00 +10°C° 0 mm 3 mps 747 mmHg 96%
03:00 +10°C° 0 mm 4 mps 747 mmHg 94%
04:00 +10°C° 0 mm 4 mps 747 mmHg 93%
05:00 +10°C° 0 mm 4 mps 746 mmHg 91%
06:00 +12°C° 0 mm 5 mps 746 mmHg 88%
07:00 +13°C° 0 mm 5 mps 747 mmHg 84%
08:00 +15°C° 0 mm 5 mps 747 mmHg 82%
09:00 +16°C° 0 mm 6 mps 747 mmHg 78%
10:00 +17°C° 0 mm 6 mps 747 mmHg 73%
11:00 +19°C° 0 mm 6 mps 746 mmHg 69%
12:00 +19°C° 0 mm 6 mps 746 mmHg 68%
13:00 +19°C° 0 mm 6 mps 746 mmHg 68%
14:00 +20°C° 0 mm 6 mps 746 mmHg 67%
15:00 +19°C° 0 mm 6 mps 745 mmHg 69%
16:00 +19°C° 0 mm 5 mps 745 mmHg 72%
17:00 +19°C° 0 mm 5 mps 745 mmHg 74%
18:00 +17°C° 0 mm 5 mps 745 mmHg 75%
19:00 +16°C° 0 mm 5 mps 744 mmHg 76%
20:00 +15°C° 0 mm 4 mps 744 mmHg 77%
21:00 +15°C° 0 mm 5 mps 744 mmHg 75%
22:00 +14°C° 0 mm 5 mps 744 mmHg 74%
23:00 +14°C° 0 mm 5 mps 744 mmHg 72%

Tomorrow, 15 July, Wednesday

Time Temperature Precipitation Wind Pressure Humidity
00:00 +14°C° 0 mm 5 mps 744 mmHg 72%
01:00 +13°C° 0 mm 5 mps 744 mmHg 72%
02:00 +13°C° 0 mm 6 mps 744 mmHg 72%
03:00 +13°C° 0 mm 6 mps 743 mmHg 74%
04:00 +13°C° 0 mm 6 mps 743 mmHg 77%
05:00 +11°C° 0 mm 6 mps 743 mmHg 79%
06:00 +13°C° 0 mm 6 mps 743 mmHg 78%
07:00 +12°C° 0 mm 7 mps 743 mmHg 77%
08:00 +12°C° 0 mm 7 mps 743 mmHg 77%
09:00 +12°C° 0.2 mm 7 mps 743 mmHg 77%
10:00 +12°C° 0.2 mm 7 mps 743 mmHg 78%
11:00 +12°C° 0.2 mm 7 mps 743 mmHg 79%
12:00 +12°C° 0.3 mm 7 mps 743 mmHg 81%
13:00 +11°C° 0.3 mm 6 mps 743 mmHg 84%
14:00 +11°C° 0.3 mm 6 mps 744 mmHg 86%
15:00 +12°C° 0.3 mm 5 mps 744 mmHg 88%
16:00 +12°C° 0.3 mm 4 mps 744 mmHg 89%
17:00 +12°C° 0.3 mm 3 mps 744 mmHg 91%
18:00 +12°C° 0 mm 3 mps 744 mmHg 90%
19:00 +13°C° 0 mm 2 mps 745 mmHg 88%
20:00 +13°C° 0 mm 2 mps 745 mmHg 87%
21:00 +13°C° 0 mm 2 mps 745 mmHg 88%
22:00 +12°C° 0 mm 3 mps 745 mmHg 89%
23:00 +11°C° 0 mm 3 mps 745 mmHg 90%

Day after tomorrow, 16 July, Thursday

Time Temperature Precipitation Wind Pressure Humidity
00:00 +11°C° 0 mm 3 mps 745 mmHg 91%
01:00 +11°C° 0 mm 3 mps 745 mmHg 91%
02:00 +11°C° 0 mm 3 mps 745 mmHg 91%
03:00 +11°C° 0 mm 3 mps 745 mmHg 92%
04:00 +11°C° 0 mm 3 mps 745 mmHg 92%
05:00 +11°C° 0 mm 4 mps 744 mmHg 93%
06:00 +13°C° 0 mm 4 mps 745 mmHg 89%
07:00 +14°C° 0 mm 4 mps 745 mmHg 85%
08:00 +17°C° 0 mm 4 mps 745 mmHg 81%
09:00 +18°C° 0 mm 4 mps 745 mmHg 76%
10:00 +19°C° 0 mm 4 mps 745 mmHg 72%
11:00 +20°C° 0 mm 4 mps 745 mmHg 67%
12:00 +21°C° 0 mm 4 mps 745 mmHg 65%
13:00 +21°C° 0 mm 3 mps 745 mmHg 63%
14:00 +22°C° 0 mm 3 mps 745 mmHg 62%
15:00 +22°C° 0 mm 3 mps 745 mmHg 64%
16:00 +22°C° 0 mm 3 mps 745 mmHg 65%
17:00 +23°C° 0 mm 2 mps 744 mmHg 67%
18:00 +20°C° 0 mm 2 mps 744 mmHg 71%
19:00 +19°C° 0 mm 1 mps 745 mmHg 75%
20:00 +18°C° 0 mm 1 mps 745 mmHg 79%
21:00 +16°C° 0 mm 1 mps 745 mmHg 79%
22:00 +15°C° 0 mm 1 mps 745 mmHg 80%
23:00 +15°C° 0 mm 1 mps 745 mmHg 80%

17 July, Friday

Time Temperature Precipitation Wind Pressure Humidity
00:00 +14°C° 0 mm 1 mps 745 mmHg 81%
01:00 +14°C° 0 mm 1 mps 745 mmHg 83%
02:00 +14°C° 0 mm 1 mps 745 mmHg 84%
03:00 +14°C° 0 mm 1 mps 745 mmHg 84%
04:00 +13°C° 0 mm 0 mps 745 mmHg 85%
05:00 +13°C° 0 mm 0 mps 745 mmHg 85%
06:00 +15°C° 0 mm 0 mps 745 mmHg 81%
07:00 +17°C° 0 mm 0 mps 746 mmHg 77%
08:00 +18°C° 0 mm 0 mps 746 mmHg 72%
09:00 +20°C° 0 mm 0 mps 746 mmHg 68%
10:00 +21°C° 0 mm 0 mps 746 mmHg 64%
11:00 +24°C° 0 mm 1 mps 746 mmHg 60%
12:00 +25°C° 0 mm 1 mps 746 mmHg 58%
13:00 +25°C° 0 mm 1 mps 746 mmHg 56%
14:00 +25°C° 0 mm 1 mps 746 mmHg 55%
15:00 +25°C° 0 mm 1 mps 746 mmHg 58%
16:00 +25°C° 0 mm 1 mps 746 mmHg 60%
17:00 +25°C° 0 mm 1 mps 746 mmHg 63%
18:00 +23°C° 0 mm 2 mps 746 mmHg 69%
19:00 +21°C° 0 mm 2 mps 746 mmHg 75%
20:00 +19°C° 0 mm 2 mps 746 mmHg 81%
21:00 +18°C° 0 mm 2 mps 747 mmHg 82%
22:00 +17°C° 0 mm 2 mps 747 mmHg 84%
23:00 +17°C° 0 mm 2 mps 747 mmHg 85%

18 July, Saturday

Time Temperature Precipitation Wind Pressure Humidity
00:00 +16°C° 0 mm 2 mps 747 mmHg 86%
01:00 +16°C° 0 mm 2 mps 747 mmHg 86%
02:00 +16°C° 0 mm 2 mps 748 mmHg 87%
03:00 +16°C° 0 mm 2 mps 748 mmHg 87%
04:00 +16°C° 0 mm 2 mps 748 mmHg 88%
05:00 +16°C° 0 mm 2 mps 748 mmHg 89%
06:00 +17°C° 0 mm 2 mps 748 mmHg 86%
07:00 +19°C° 0 mm 2 mps 749 mmHg 83%
08:00 +20°C° 0 mm 3 mps 749 mmHg 81%
09:00 +21°C° 0.1 mm 3 mps 749 mmHg 77%
10:00 +22°C° 0.1 mm 3 mps 749 mmHg 74%
11:00 +24°C° 0.1 mm 3 mps 749 mmHg 71%
12:00 +24°C° 0.1 mm 3 mps 749 mmHg 70%
13:00 +25°C° 0.1 mm 3 mps 749 mmHg 69%
14:00 +25°C° 0.1 mm 3 mps 749 mmHg 67%
15:00 +25°C° 0.3 mm 3 mps 749 mmHg 71%
16:00 +24°C° 0.3 mm 2 mps 749 mmHg 75%
17:00 +24°C° 0.3 mm 2 mps 749 mmHg 79%
18:00 +23°C° 0 mm 2 mps 749 mmHg 80%
19:00 +20°C° 0 mm 2 mps 749 mmHg 81%
20:00 +19°C° 0 mm 2 mps 749 mmHg 82%
21:00 +19°C° 0 mm 2 mps 749 mmHg 83%
22:00 +18°C° 0 mm 2 mps 749 mmHg 83%
23:00 +17°C° 0 mm 2 mps 749 mmHg 83%

19 July, Sunday

Time Temperature Precipitation Wind Pressure Humidity
00:00 +16°C° 0 mm 2 mps 749 mmHg 84%
01:00 +16°C° 0 mm 2 mps 749 mmHg 84%
02:00 +15°C° 0 mm 2 mps 750 mmHg 84%
03:00 +15°C° 0 mm 2 mps 750 mmHg 85%
04:00 +15°C° 0 mm 2 mps 750 mmHg 86%
05:00 +15°C° 0 mm 2 mps 750 mmHg 86%
06:00 +17°C° 0 mm 2 mps 749 mmHg 83%
07:00 +18°C° 0 mm 2 mps 749 mmHg 81%
08:00 +20°C° 0 mm 3 mps 749 mmHg 78%
09:00 +21°C° 0 mm 3 mps 749 mmHg 74%
10:00 +22°C° 0 mm 3 mps 749 mmHg 71%
11:00 +25°C° 0 mm 3 mps 749 mmHg 67%
12:00 +25°C° 0 mm 3 mps 749 mmHg 66%
13:00 +25°C° 0 mm 3 mps 748 mmHg 65%
14:00 +26°C° 0 mm 4 mps 748 mmHg 64%
15:00 +26°C° 0 mm 3 mps 748 mmHg 66%
16:00 +25°C° 0 mm 3 mps 748 mmHg 69%
17:00 +25°C° 0 mm 3 mps 747 mmHg 71%
18:00 +24°C° 0 mm 3 mps 747 mmHg 75%
19:00 +21°C° 0 mm 3 mps 747 mmHg 80%
20:00 +19°C° 0 mm 3 mps 747 mmHg 84%
21:00 +19°C° 0 mm 3 mps 747 mmHg 85%
22:00 +18°C° 0 mm 3 mps 747 mmHg 85%
23:00 +17°C° 0 mm 3 mps 747 mmHg 86%
Show more